Scottsbluff, NE

7:22 PM MST on November 16, 2019 (GMT -0700)
Heilig

Weather History for KBFF - July, 2019

Change the Weather History Date:

Friday, July 12, 2019

  Actual Average Record
Temperature  
Mean Temperature 78 °F -  
Max Temperature 89 °F 90 °F 106 °F (1939)
Min Temperature 66 °F 58 °F 37 °F (1922)
Cooling Degree Days 12    
Growing Degree Days 28 (Base 50)    
Moisture  
Dew Point 32 °F    
Average Humidity 12    
Maximum Humidity 17    
Minimum Humidity 7    
Precipitation  
Precipitation 0.00 in - - ()
Sea Level Pressure  
Sea Level Pressure 29.91 in    
Wind  
Wind Speed 7 mph (East)    
Max Wind Speed 13 mph    
Max Gust Speed -    
Visibility 10 miles    
Events      
Averages and records for this station are not official NWS values.
T = Trace of Precipitation, MM = Missing Value Source: NWS Daily Summary

Daily Weather History Graph

Daily Weather History Graph

Search for Another Location

Airport or City:

Astronomy

Jul. 12, 2019 Rise Set
Actual Time 5:30 AM MDT 8:29 PM MDT
Civil Twilight 4:56 AM MDT 9:03 PM MDT
Nautical Twilight 4:13 AM MDT 9:45 PM MDT
Astronomical Twilight 3:23 AM MDT 10:35 PM MDT
Moon 4:50 PM MDT (7/12) 2:16 AM MDT (7/12)
Length of Visible Light 16h 06m
Length of Day
14h 59m
Waxing Gibbous, 83% of the Moon is Illuminated
Jul 12
Waxing Gibbous
Jul 16
Full
Jul 24
Last Quarter
Jul 31
New
Aug 7
First Quarter

Hourly Weather History & Observations

Time (MDT) Temp. Dew Point Humidity Pressure Visibility Wind Dir Wind Speed Gust Speed Precip Events Conditions
12:53 AM 66.9 °F - N/A% 29.86 in 10.0 mi East 5.8 mph - N/A   Clear
1:53 AM 66.9 °F - N/A% 29.85 in 10.0 mi ENE 5.8 mph - N/A   Clear
2:53 AM 64.0 °F - N/A% 29.85 in 10.0 mi WNW 5.8 mph - N/A   Clear
3:53 AM 64.0 °F - N/A% 29.83 in 10.0 mi North 4.6 mph - N/A   Clear
4:53 AM 62.1 °F - N/A% 29.85 in 10.0 mi WSW 8.1 mph - N/A   Clear
5:53 AM 66.0 °F - N/A% 29.87 in 10.0 mi NNE 11.5 mph - N/A   Clear
6:53 AM 70.0 °F - N/A% 29.92 in 10.0 mi Variable 3.5 mph - N/A   Clear
7:53 AM 73.0 °F - N/A% 29.96 in 10.0 mi Calm Calm - N/A   Clear
8:53 AM 78.1 °F - N/A% 29.97 in 10.0 mi NE 11.5 mph - N/A   Clear
9:53 AM 81.0 °F - N/A% 29.96 in 10.0 mi East 12.7 mph - N/A   Clear
10:53 AM 81.0 °F - N/A% 29.96 in 10.0 mi East 8.1 mph - N/A   Clear
11:53 AM 82.0 °F - N/A% 29.96 in 10.0 mi SSE 8.1 mph - N/A   Clear
12:53 PM 84.0 °F - N/A% 29.95 in 10.0 mi North - - N/A   Clear
1:53 PM 87.1 °F - N/A% 29.93 in 10.0 mi Variable 3.5 mph - N/A   Clear
2:53 PM 89.1 °F - N/A% 29.90 in 10.0 mi East 8.1 mph - N/A   Clear
3:53 PM 87.1 °F - N/A% 29.90 in 10.0 mi SSE 5.8 mph - N/A   Clear
4:53 PM 87.1 °F - N/A% 29.91 in 10.0 mi Calm Calm - N/A   Clear
5:53 PM 86.0 °F - N/A% 29.87 in 10.0 mi SSE 3.5 mph - N/A   Clear
6:53 PM 84.9 °F - N/A% 29.87 in 10.0 mi East 4.6 mph - N/A   Clear
7:53 PM 82.9 °F - N/A% 29.88 in 10.0 mi ENE 5.8 mph - N/A   Clear
8:53 PM 73.9 °F - N/A% 29.89 in 10.0 mi ESE 5.8 mph - N/A   Clear
9:53 PM 73.9 °F - N/A% 29.91 in 10.0 mi South 9.2 mph - N/A   Clear
10:53 PM 71.1 °F - N/A% 29.96 in 10.0 mi East 11.5 mph - N/A   Clear